This is the latest recevied weather packets stored in our database for station/object KN6CW-3. If no packets are shown the sender has not sent any weather packets the latest 10 day(s).
| Time | Temp. | Humidity | Pressure | Rain* | Wind** | Luminosity | Snow |
|---|---|---|---|---|---|---|---|
| 1777657128 | 12.78° C | 45% | 1012.3 hPa | 0 mm | - | 925 W/m² | - |
| 1777656828 | 13.33° C | 45% | 1012.4 hPa | 0 mm | - | 926 W/m² | - |
| 1777656527 | 13.33° C | 46% | 1012.3 hPa | 0 mm | - | 937 W/m² | - |
| 1777656227 | 13.33° C | 48% | 1012.4 hPa | 0 mm | - | 933 W/m² | - |
| 1777655927 | 12.78° C | 46% | 1012.4 hPa | 0 mm | - | 928 W/m² | - |
| 1777655626 | 12.22° C | 49% | 1012.6 hPa | 0 mm | - | 935 W/m² | - |
| 1777655326 | 12.22° C | 46% | 1012.7 hPa | 0 mm | - | 837 W/m² | - |
| 1777655026 | 12.78° C | 49% | 1012.7 hPa | 0 mm | - | 940 W/m² | - |
| 1777654728 | 12.22° C | 48% | 1012.6 hPa | 0 mm | - | 933 W/m² | - |
| 1777654426 | 12.22° C | 52% | 1012.6 hPa | 0 mm | - | 937 W/m² | - |
| 1777654125 | 11.67° C | 47% | 1012.8 hPa | 0 mm | - | 933 W/m² | - |
| 1777653825 | 11.67° C | 48% | 1012.9 hPa | 0 mm | - | 932 W/m² | - |
| 1777653524 | 11.67° C | 48% | 1013 hPa | 0 mm | - | 928 W/m² | - |
| 1777653224 | 11.67° C | 47% | 1013.1 hPa | 0 mm | - | 930 W/m² | - |
| 1777652924 | 11.67° C | 48% | 1013.1 hPa | 0 mm | - | 930 W/m² | - |
| 1777652624 | 11.11° C | 48% | 1013.2 hPa | 0 mm | - | 928 W/m² | - |
| 1777652323 | 11.11° C | 49% | 1013.2 hPa | 0 mm | - | 921 W/m² | - |
| 1777652023 | 11.11° C | 52% | 1013.2 hPa | 0 mm | - | 921 W/m² | - |
| 1777651723 | 10.56° C | 51% | 1013.2 hPa | 0 mm | - | 916 W/m² | - |
| 1777651422 | 10.56° C | 49% | 1013.2 hPa | 0 mm | - | 916 W/m² | - |
| 1777651122 | 10.56° C | 49% | 1013.4 hPa | 0 mm | - | 911 W/m² | - |
| 1777650822 | 10.56° C | 54% | 1013.6 hPa | 0 mm | - | 900 W/m² | - |
| 1777650521 | 10.56° C | 56% | 1013.7 hPa | 0 mm | - | 902 W/m² | - |
| 1777650221 | 10.56° C | 56% | 1013.7 hPa | 0 mm | - | 896 W/m² | - |
| 1777649921 | 10.56° C | 56% | 1013.8 hPa | 0 mm | - | 889 W/m² | - |
* Rain latest hour (hover to see other rain measurements)
** Current wind speed in m/s (hover to see current wind gust speed)